Regional Weather Roundup
Issued by NWS

Home | Current Version | Previous Version | Graphics & Text | Print | Product List | Glossary On
Versions: 1 2 3 4 5 6 7 8 9 10 11 12 13 14 15 16 17 18 19 20 21 22 23 24 25 26 27 28 29 30 31 32 33 34 35 36 37 38 39 40 41 42 43 44 45 46 47 48 49 50
000
ASUS43 KLSX 221359
RWRMO

WEATHER SUMMARY FOR MISSOURI
NATIONAL WEATHER SERVICE SPRINGFIELD MO
900 AM CDT TUE APR 22 2014

NOTE: "FAIR" INDICATES FEW OR NO CLOUDS BELOW 12,000 FEET WITH NO
       SIGNIFICANT WEATHER AND/OR OBSTRUCTIONS TO VISIBILITY.
       CURRENT SKY AND/OR WEATHER CONDITIONS ARE NOT AVAILABLE FOR
       CHILLICOTHE AND FARMINGTON.

MOZ001>031-035>038-043-044-053-054-221500-
...NORTHERN AND WESTERN MISSOURI...

CITY           SKY/WX    TMP DP  RH WIND       PRES   REMARKS
KANSAS CTY INT MOSUNNY   51  32  48 NE12      30.16R
KANSAS C DTWN  SUNNY     54  31  41 NE16      30.15R
LEE`S SUMMIT   SUNNY     52  33  48 NE16      30.15R
ST JOSEPH      SUNNY     52  33  48 NE10      30.16S
KIRKSVILLE     SUNNY     49  35  58 N14G23    30.12R

$$
MOZ066>068-077>081-088>096-101>105-221500-
...SOUTHWEST MISSOURI...

CITY           SKY/WX    TMP DP  RH WIND       PRES   REMARKS
SPRINGFIELD    SUNNY     55  41  59 N15       30.08R
JOPLIN         SUNNY     55  41  59 NE10      30.11S

$$
MOZ032>034-039>042-045>050-055>058-069>072-221500-
...CENTRAL MISSOURI...

CITY           SKY/WX    TMP DP  RH WIND       PRES   REMARKS
COLUMBIA       SUNNY     52  40  63 N15       30.09R
JEFFERSON CITY SUNNY     54  37  52 N8        30.10R
ROLLA          SUNNY     53  42  66 N13       30.05S
SEDALIA        SUNNY     53  37  54 NE12      30.12R
OSAGE BEACH    SUNNY     54  39  58 NE10G17   30.10S

$$
MOZ051-052-059>065-221500-
...EAST CENTRAL MISSOURI...

CITY           SKY/WX    TMP DP  RH WIND       PRES   REMARKS
ST LOUIS INTL  MOSUNNY   57  39  51 N14       30.03S
SPIRIT OF STL  SUNNY     55  40  56 N10       30.04R
ST CHARLES     SUNNY     56  41  57 N12G18    30.03S

$$
MOZ072>076-082>087-097>100-106>115-221500-
...SOUTH CENTRAL AND SOUTHEAST MISSOURI...

CITY           SKY/WX    TMP DP  RH WIND       PRES   REMARKS
CAPE GIRARDEAU   N/A     62  49  62 N15       29.96R
FARMINGTON     SUNNY     55  45  67 NW12G18   30.04R
POPLAR BLUFF   SUNNY     64  48  56 N15       29.96R
WEST PLAINS    SUNNY     59  44  57 N14G23    30.04R

$$



USA.gov is the U.S. government's official web portal to all federal, state and local government web resources and services.